Flag for Indonesia Weather past 2 weeks in Manado, North Sulawesi, Indonesia

Now
77 °F

Passing clouds.


Feels Like: 78 °F
Forecast: 76 / 88 °F
Wind: 2 mph from Northeast

Location: Menado / Dr. Sam Ratulangi

Current Time: Apr 27, 2015 at 9:21:25 PM

Latest Report: Apr 27, 2015 at 9:00 PM


Visibility: 6 mi

Pressure: 29.89 "Hg

Humidity: 89%

Dew point: 73 °F

Location of ManadoLocation

Historic Weather in Manado — Graph

°F

Manado temperature yesterday

Maximum temperature yesterday: 90 °F (at 9:30 AM)
Minimum temperature yesterday: 73 °F (at 5:00 AM)
Average temperature yesterday: 83 °F

Past Weeks' High & Low Weather Summary

 TemperatureHumidityPressure
High91 °F (Apr 15, 12:00 PM)100% (Apr 13, 4:30 AM)29.95 "Hg (Apr 13, 4:30 AM)
Low72 °F (Apr 13, 4:30 AM)49% (Apr 22, 11:00 AM)29.74 "Hg (Apr 24, 2:30 PM)
Average82 °F80%29.85 "Hg
* Reported Apr 12 8:00 PM — Apr 27 8:00 PM, Manado, Weather by CustomWeather, © 2015

Note: Actual official high and low records may vary slightly from our data, if they occured in-between our weather recording intervals... More about our weather records

Advertising

Manado weather history for previous 24 hours

 ConditionsComfort  
Time TempWeatherWind HumidityBarometerVisibility
8:00 PM
Mon, Apr 27
77 °FPassing clouds.5 mph94%29.89 "Hg6 mi
7:30 PM79 °FPassing clouds.3 mph89%29.86 "Hg6 mi
7:00 PM79 °FPassing clouds.1 mph89%29.86 "Hg6 mi
6:30 PM79 °FPassing clouds.3 mph89%29.86 "Hg6 mi
6:00 PM81 °FPassing clouds.3 mph84%29.83 "Hg6 mi
5:30 PM82 °FPassing clouds.2 mph79%29.83 "Hg6 mi
5:00 PM82 °FPassing clouds.5 mph79%29.83 "Hg6 mi
4:30 PM82 °FPassing clouds.5 mph79%29.80 "Hg6 mi
4:00 PM82 °FScattered clouds.3 mph79%29.80 "Hg6 mi
3:30 PM81 °FScattered clouds.2 mph84%29.80 "Hg6 mi
3:00 PM81 °FThunderstorms. Scattered clouds.3 mph84%29.80 "Hg5 mi
2:30 PM81 °FThunderstorms. Scattered clouds.6 mph84%29.80 "Hg5 mi
2:00 PM77 °FLight rain. Scattered clouds.7 mph94%29.80 "Hg5 mi
1:30 PM77 °FRain. Scattered clouds.8 mph94%29.83 "Hg4 mi
1:00 PM82 °FRain. Scattered clouds.12 mph74%29.83 "Hg4 mi
12:30 PM90 °FScattered clouds.8 mph59%29.83 "Hg6 mi
12:00 PM91 °FScattered clouds.7 mph52%29.83 "HgN/A
11:30 AM90 °FScattered clouds.7 mph55%29.83 "HgN/A
11:00 AM90 °FScattered clouds.5 mph59%29.83 "HgN/A
10:30 AM90 °FPassing clouds.3 mph59%29.86 "HgN/A
10:00 AM90 °FPassing clouds.2 mph55%29.86 "HgN/A
9:30 AM88 °FPassing clouds.3 mph59%29.89 "HgN/A
9:00 AM88 °FPassing clouds.2 mph59%29.89 "HgN/A
8:30 AM88 °FPassing clouds.2 mph59%29.89 "HgN/A
8:00 AM86 °FPassing clouds.1 mph66%29.89 "HgN/A
7:30 AM82 °FPassing clouds.1 mph74%29.89 "HgN/A
7:00 AM81 °FPassing clouds.2 mph79%29.89 "HgN/A
5:30 AM73 °FPassing clouds.1 mph94%29.86 "HgN/A
3:30 AM73 °FPassing clouds.1 mph94%29.83 "HgN/A
3:00 AM73 °FPassing clouds.1 mph94%29.83 "HgN/A
2:30 AM75 °FPassing clouds.No wind94%29.83 "HgN/A
2:00 AM75 °FPassing clouds.No wind94%29.83 "HgN/A
1:30 AM75 °FPassing clouds.No wind94%29.86 "HgN/A
1:00 AM77 °FPassing clouds.2 mph89%29.86 "HgN/A
12:00 AM77 °FPassing clouds.3 mph89%29.86 "HgN/A
11:30 PM
Sun, Apr 26
77 °FPassing clouds.3 mph83%29.89 "HgN/A
11:00 PM77 °FPassing clouds.3 mph83%29.89 "HgN/A
10:30 PM77 °FPassing clouds.2 mph89%29.92 "HgN/A
10:00 PM77 °FPassing clouds.3 mph89%29.92 "HgN/A
9:00 PM77 °FPassing clouds.3 mph89%29.92 "HgN/A
Weather by CustomWeather, © 2015

See weather overviewHow to use our weather pages